Regional Weather Roundup
Issued by NWS

Home | Current Version | Previous Version | Graphics & Text | Print | Product List | Glossary On
Versions: 1 2 3 4 5 6 7 8 9 10 11 12 13 14 15 16 17 18 19 20 21 22 23 24 25 26 27 28 29 30 31 32 33 34 35 36 37 38 39 40 41 42 43 44 45 46 47 48 49 50
000
ASUS43 KDTX 030801
RWRMI
MICHIGAN HOURLY REGIONAL WEATHER ROUNDUP
NATIONAL WEATHER SERVICE DETROIT/PONTIAC MI
400 AM EDT FRI JUL 03 2015

NOTE: "FAIR" INDICATES FEW OR NO CLOUDS BELOW 12,000 FEET WITH NO
SIGNIFICANT WEATHER AND/OR OBSTRUCTION TO VISIBILITY.

MIZ047>049-052>055-059>063-066>070-074>076-081>083-030900-
SOUTHEAST LOWER MICHIGAN

CITY           SKY/WX    TMP DP  RH WIND       PRES   REMARKS
ADRIAN         PTCLDY    56  51  84 NE3       30.01S
ALMA           CLEAR     47  47  98 CALM      30.02S
ANN ARBOR      CLEAR     49  48  97 CALM      30.00S
BAD AXE        CLEAR     40  39  95 CALM      30.02F
CARO             N/A     42  42  99 CALM      30.02S
DETROIT CITY   CLEAR     55  47  74 CALM      30.01R
DETROIT        CLEAR     56  49  77 N3        30.01S
FLINT          CLEAR     51  48  89 CALM      30.01S
GROSSE ILE     CLEAR     55  52  88 CALM      29.99S
HILLSDALE      PTCLDY    54  54 100 CALM      30.00F FOG
HOWELL         CLEAR     52  50  91 CALM      30.01R

CITY           SKY/WX    TMP DP  RH WIND       PRES   REMARKS
JACKSON        PTCLDY    52  50  93 CALM      30.00F
LAMBERTVILLE   CLEAR     57  53  86 CALM      30.00S
LANSING        CLEAR     50  47  89 CALM      30.01S
LAPEER         FOG       44  43  97 CALM      30.02S VSB 3/4
MASON          CLEAR     49  47  93 CALM      30.00S
MONROE         CLEAR     52  51  96 N3        29.99F
MT. CLEMENS    CLEAR     50  48  93 NW2       29.99S
PONTIAC        CLEAR     52  47  83 CALM      30.00S
PORT HOPE        N/A     47  44  90 S3        29.99F
PORT HURON     CLEAR     46  46 100 CALM      30.01S FOG
TRI CITIES     CLEAR     53  46  77 CALM      30.02F
MIDLAND        FAIR      44  42  95 CALM      30.01S
TROY           CLEAR     55  50  82 CALM      30.02S
SAGINAW HB     CLEAR     46  43  87 CALM      30.01S
$$
MIZ043>046-050>051-056>058-064>065-071>073-077>080-030900-
SOUTHWEST LOWER MICHIGAN

CITY           SKY/WX    TMP DP  RH WIND       PRES   REMARKS
BATTLE CREEK   PTCLDY    58  49  72 E3        30.00F
BENTON HARBOR  PTCLDY    54  51  90 E3        29.98S
BIG RAPIDS     CLEAR     49  46  88 CALM      30.01F
COLDWATER      PTCLDY    54  53  95 CALM      29.99F
FREMONT        FAIR      51  50  97 E3        30.00S
HOLLAND        PTCLDY    54  49  83 CALM      30.00F
GRAND RAPIDS   CLEAR     55  47  74 E3        30.00F
IONIA          FAIR      51  50  95 CALM      30.00S
KALAMAZOO      PTCLDY    56  50  80 CALM      30.00S
LUDINGTON      CLEAR     51  49  92 CALM      30.00S FOG
MARSHALL       PTCLDY    54  50  88 CALM      29.99F
MOUNT PLEASANT CLEAR     47  46  96 CALM      30.02R FOG
MUSKEGON       CLEAR     53  49  86 CALM      30.00F
SOUTH HAVEN    PTCLDY    56  50  81 CALM      29.99S
$$
MIZ016>042-030900-
NORTHERN LOWER MICHIGAN

CITY           SKY/WX    TMP DP  RH WIND       PRES   REMARKS
ALPENA         CLEAR     50  43  77 CALM      30.00S
BEAVER ISLAND  CLEAR     48  44  83 CALM      29.98S
BELLAIRE       CLEAR     46  45  96 CALM      30.00S
CADILLAC       CLEAR     45  44  96 CALM      30.02S
CHARLEVOIX     CLEAR     56  50  79 SE6       30.01S
FRANKFORT      CLEAR     52  45  76 CALM      29.99S
GAYLORD        CLEAR     54  47  77 SW6       30.01S
GRAYLING       CLEAR     41  39  93 CALM      30.02S
HARBOR SPRINGS CLEAR     53  49  85 CALM      29.99S
HOUGHTON LAKE  CLEAR     45  44  97 CALM      30.02S FOG
MANISTEE       CLEAR    N/A N/A N/A CALM      30.00S
OSCODA         CLEAR     44  40  86 CALM      30.00S
PELLSTON       CLEAR     47  45  93 CALM      29.98S
TRAVERSE CITY  CLEAR     54  48  80 S3        29.98S
$$
MIZ007>008-015-030900-
EASTERN UPPER MICHIGAN

CITY           SKY/WX    TMP DP  RH WIND       PRES   REMARKS
KINROSS        PTCLDY    55  50  82 SW3       29.96R
MACKINAC ISLAN PTCLDY    58  49  73 SW8       29.97S
NEWBERRY       CLEAR     53  44  70 SW8       29.95S
S. S. MARIE    MOCLDY    55  49  80 CALM      29.95S
$$
MIZ004>006-011>014-085-030900-
CENTRAL UPPER MICHIGAN

CITY           SKY/WX    TMP DP  RH WIND       PRES   REMARKS
MANISTIQUE     CLOUDY    56  50  79 SW6       29.96R
ESCANABA       MOCLDY    54  48  82 CALM      29.97R
MENOMINEE      CLEAR     57  48  72 W5        29.98R
SAWYER-GWINN   MOCLDY    59  48  67 SW13      29.94S
$$
MIZ001>003-009>011-084-030900-
WESTERN UPPER MICHIGAN

CITY           SKY/WX    TMP DP  RH WIND       PRES   REMARKS
IRON MOUNTAIN  CLEAR     54  47  77 CALM      29.96S
HOUGHTON       MOCLDY    67  51  56 W17       29.89S
COPPER HARBOR    N/A     71  52  50 W7        29.84F
IRONWOOD       CLEAR     61  54  77 SW8       29.93R
$$

ABBREVIATIONS USED IN REMARKS
   TC - TEMPERATURE IN CELSIUS
  WCI - WIND CHILL INDEX
   HX - HEAT INDEX
  VSB - VISIBILITY




USA.gov is the U.S. government's official web portal to all federal, state and local government web resources and services.